This is the latest recevied weather packets stored in our database for station/object KE0TNI-13. If no packets are shown the sender has not sent any weather packets the latest 1 day(s).
| Time | Temp. | Humidity | Pressure | Rain* | Wind** | Luminosity | Snow |
|---|---|---|---|---|---|---|---|
| 1777991976 | -1.67° C | 98% | 1015.4 hPa | 0 mm | 0 m/s | 57 W/m² | - |
| 1777991674 | -1.67° C | 98% | 1015.4 hPa | 0 mm | 0.45 m/s, 55° | 45 W/m² | - |
| 1777991370 | -1.67° C | 98% | 1015.4 hPa | 0 mm | 0.45 m/s, 139° | 56 W/m² | - |
| 1777991068 | -1.67° C | 98% | 1015.3 hPa | 0 mm | 0 m/s | 48 W/m² | - |
| 1777990765 | -1.67° C | 98% | 1015.2 hPa | 0 mm | 0.45 m/s, 80° | 42 W/m² | - |
| 1777990462 | -1.67° C | 98% | 1015.7 hPa | 0 mm | 0 m/s | 56 W/m² | - |
| 1777990159 | -1.67° C | 98% | 1015.6 hPa | 0 mm | 0.45 m/s, 166° | 51 W/m² | - |
| 1777989855 | -1.67° C | 98% | 1015.6 hPa | 0 mm | 0 m/s | 67 W/m² | - |
| 1777989552 | -1.67° C | 98% | 1015.6 hPa | 0 mm | 0.89 m/s, 92° | 54 W/m² | - |
| 1777989249 | -1.67° C | 98% | 1015.6 hPa | 0 mm | 0.89 m/s, 108° | 27 W/m² | - |
| 1777988945 | -1.67° C | 98% | 1015.4 hPa | 0 mm | 0.45 m/s, 127° | 33 W/m² | - |
| 1777988642 | -1.67° C | 98% | 1015.3 hPa | 0 mm | 1.79 m/s, 134° | 33 W/m² | - |
| 1777988338 | -1.67° C | 98% | 1015.3 hPa | 0 mm | 0.89 m/s, 156° | 32 W/m² | - |
| 1777988035 | -1.67° C | 98% | 1015 hPa | 0 mm | 0.45 m/s, 164° | 24 W/m² | - |
| 1777987731 | -1.11° C | 98% | 1015.3 hPa | 0 mm | 0 m/s | 22 W/m² | - |
| 1777987429 | -1.11° C | 98% | 1015.2 hPa | 0 mm | 0.45 m/s, 44° | 20 W/m² | - |
| 1777987125 | -1.11° C | 98% | 1014.9 hPa | 0 mm | 0.45 m/s, 57° | 23 W/m² | - |
| 1777986823 | -1.11° C | 98% | 1014.9 hPa | 0 mm | 0 m/s | 19 W/m² | - |
| 1777986521 | -1.11° C | 98% | 1015 hPa | 0 mm | 0.45 m/s, 203° | 21 W/m² | - |
| 1777986218 | -1.11° C | 98% | 1014.7 hPa | 0 mm | 0.45 m/s, 282° | 17 W/m² | - |
| 1777985915 | -1.11° C | 98% | 1014.7 hPa | 0 mm | 0.45 m/s, 251° | 11 W/m² | - |
| 1777985613 | -1.11° C | 98% | 1015 hPa | 0 mm | 0.45 m/s, 116° | 10 W/m² | - |
| 1777985309 | -1.11° C | 98% | 1014.9 hPa | 0 mm | 0 m/s | 9 W/m² | - |
| 1777985006 | -1.11° C | 98% | 1014.8 hPa | 0 mm | 0.45 m/s, 302° | 7 W/m² | - |
| 1777984702 | -1.11° C | 98% | 1014.8 hPa | 0 mm | 0.89 m/s, 242° | 6 W/m² | - |
* Rain latest hour (hover to see other rain measurements)
** Current wind speed in m/s (hover to see current wind gust speed)